Location: Beaver Meadows
(40.3728°N, 105.6136°W)
Time: 02:40:34
(UTC-06:00)

ISS - Visible Passes

Search period start: 24 September 2017 00:00
Search period end: 04 October 2017 00:00
Orbit: 401 x 407 km, 51.6° (Epoch: 24 September)

Date Brightness Start Highest point End Pass type
(mag) Time Alt. Az. Time Alt. Az. Time Alt. Az.
24 Sep -3.2 20:16:56 10° SSW 20:19:46 38° SSE 20:19:46 38° SSE visible
25 Sep -2.3 19:25:22 10° S 19:27:49 20° SE 19:30:17 10° E visible
25 Sep -2.0 21:00:57 10° WSW 21:02:59 31° W 21:02:59 31° W visible
26 Sep -3.9 20:08:27 10° SW 20:11:42 82° NW 20:13:17 28° NE visible
27 Sep -3.5 19:16:16 10° SW 19:19:24 49° SE 19:22:35 10° ENE visible
27 Sep -1.7 20:53:18 10° W 20:56:02 24° NNW 20:56:05 24° NNW visible
28 Sep -2.5 20:00:29 10° W 20:03:32 36° NNW 20:06:03 14° NE visible
29 Sep -3.5 19:07:52 10° WSW 19:11:05 66° NW 19:14:21 10° NE visible
29 Sep -1.3 20:45:55 10° WNW 20:48:04 16° NNW 20:48:33 16° N visible
30 Sep -1.6 19:52:51 10° WNW 19:55:26 21° NNW 19:58:03 10° NNE visible
01 Oct -1.1 20:38:37 10° NW 20:40:08 13° N 20:40:36 12° N visible
02 Oct -1.2 19:45:27 10° NW 19:47:25 15° NNW 19:49:24 10° NNE visible
03 Oct -1.1 20:30:59 10° NNW 20:32:12 12° N 20:32:25 11° N visible
